122  
ASUS44 KLCH 312310  
RWRLCH  
REGIONAL WEATHER ROUNDUP  
NATIONAL WEATHER SERVICE LAKE CHARLES LA  
600 PM CDT SUN MAY 31 2020  
 
NOTE: "FAIR" INDICATES FEW OR NO CLOUDS BELOW 12,000 FEET WITH NO  
SIGNIFICANT WEATHER AND/OR S TO VISIBILITY
.  
 
ACROSS SOUTHEAST TEXAS  
 
CITY SKY/WX TMP DP RH WIND PRES REMARKS
 
BEAUMONT CLOUDY 81 67 62 E6 30.04F  
BEAUMONT CITY NOT AVBL  
ORANGE CLOUDY 82 69 64 CALM 30.07S  
JASPER CLOUDY 84 67 55 NE3 30.09S  

 
 
ACROSS CENTRAL LOUISIANA  
 
CITY SKY/WX TMP DP RH WIND PRES REMARKS
 
LEESVILLE CLOUDY 82 62 50 NE5 30.05F  
FULLERTON FAIR 84 64 50 CALM 30.04S  
ALEXANDRIA INT PTSUNNY 84 59 42 E8 30.05S  
ESLER FIELD MOSUNNY 86 61 42 VRB3 30.06S  
DERIDDER FAIR 83 60 44 CALM 30.08S  
OAKDALE CLOUDY 82 66 57 CALM 30.06S  
OPELOUSAS FAIR 82 66 57 NE3 30.06S  

 
 
ACROSS SOUTHWEST AND SOUTH CENTRAL LOUISIANA  
 
CITY SKY/WX TMP DP RH WIND PRES REMARKS
 
DEQUINCY FAIR 82 68 62 CALM 30.06S  
SULPHUR CLOUDY 83 68 61 E6 30.06S  
LAKE CHARLES CLOUDY 81 68 64 E3 30.05S  
CHENNAULT INT CLOUDY 82 68 61 NE5 30.05S  
CAMERON PHI NOT AVBL  
GRAND CHENIER NOT AVBL  
JENNINGS FAIR 83 69 64 CALM 30.05S  
LAFAYETTE CLOUDY 84 67 56 CALM 30.05S  
NEW IBERIA CLOUDY 85 67 54 E8 30.05S  
ABBEVILLE FAIR 83 65 53 N5 30.05S  
PATTERSON CLOUDY 84 72 67 SE3 30.05S  
SALT POINT N/A 79 74 84 VRB3 30.03S  

 
 
SELECTED SITES ACROSS THE REGION  
 
CITY SKY/WX TMP DP RH WIND PRES REMARKS
 
HOUSTON BUSH CLOUDY 77 74 90 SW3 30.06S  
HOUSTON HOBBY RAIN 76 73 91 S6 30.05S FOG  
GALVESTON LGT RAIN 79 74 84 SE13 30.06R  
COLLEGE STAT CLOUDY 82 67 60 E6 30.06F  
CONROE CLOUDY 80 72 76 CALM 30.07S  
HUNTSVILLE CLOUDY 82 65 56 CALM 30.07S  
LUFKIN CLOUDY 83 66 56 N3 30.07F  
SHREVEPORT PTSUNNY 85 56 37 N8 30.09S  
MONROE MOSUNNY 86 56 35 N10 30.09F  
NATCHEZ MS MOSUNNY 82 64 54 N9 30.08F  
BATON ROUGE CLOUDY 86 65 49 NE3 30.04S  
N.O. INTL ARPT CLOUDY 87 67 51 N6 30.03F  
SLIDELL PTSUNNY 87 66 49 N5 30.03F  

 
 
MARINE REPORTS  
 
STATION/POSITION TIME SKY/WX TEMP WIND PRES VSBY
 
AIR SEA DIR/SP/G  
(UTC) (F) (DEG/KT/KT) (MB) (MI)  
BUOY 30 S HIGH I 2250 78 81 130/ 6/ 8 1017.1S  
WVE H/P(F/S)= 2/ 4  
 
SEA RIM ST PARK NOT AVBL  
PORT ARTHUR 2230 81 81 50/ 3/ 9 1017.4F  
SABINE PASS N 2218 81 83 60/ 5/ 9 1019.4  
TEXAS POINT 2230 80 81 60/ 8/ 10 1015.8F  
CALCASIEU PASS 2230 81 82 100/ 5/ 8 1015.8R  
LK CHARLES BEACH 2230 83 78 1017.5F  
MARSH ISLAND NOT AVBL  
FRESH WATER LOCK 2218 82 84 120/ 5/ 6 1017.4  
AMERADA PASS 2230 82 79 100/ 1/ 5 1017.2F  

 
 
 
CLICK HERE TO GO TO PREVIOUS BULLETINS.

The Nexlab LA Page
The Nexlab TX Page Main Text Page